Station History

Weather Underground - logo

Station Historical Data
Daily Summary for October 22, 2017 Units:  English    Metric   Both
« Previous Day
Next Day »
Daily Weekly Monthly Yearly Custom
  High: Low: Average:
Temperature: 74.9 °F 44.4 °F 58.5 °F
Dew Point: 52.7 °F 41.9 °F 47.9 °F
Humidity: 92 % 41 % 71 %
Wind Speed: 4.6 mph 0.0 mph 0.4 mph
Wind Gust: 4.6 mph - -
Wind:- - WSW
Pressure: 30.35 in 30.24 in -
Precipitation: 0.00 in    
Historical Graphs
 
 
Tabular Data for October 22, 2017
Time Temperature Dew Point Pressure Wind Wind Speed Wind Gust Humidity Rainfall Rate (Hourly)
00:02 50.5 °F 47.1 °F 30.30 in Calm     88 % 0.00 in
00:07 50.4 °F 47.0 °F 30.30 in Calm     88 % 0.00 in
00:12 50.3 °F 46.9 °F 30.30 in Calm     88 % 0.00 in
00:17 50.4 °F 47.0 °F 30.30 in Calm     88 % 0.00 in
00:22 50.3 °F 46.6 °F 30.30 in Calm     87 % 0.00 in
00:27 50.3 °F 46.6 °F 30.30 in Calm     87 % 0.00 in
00:32 50.3 °F 46.9 °F 30.30 in Calm     88 % 0.00 in
00:37 50.4 °F 47.0 °F 30.30 in Calm     88 % 0.00 in
00:42 50.4 °F 46.7 °F 30.30 in Calm     87 % 0.00 in
00:47 50.1 °F 46.1 °F 30.30 in Calm     86 % 0.00 in
00:52 49.7 °F 45.7 °F 30.30 in Calm     86 % 0.00 in
00:57 49.4 °F 45.7 °F 30.30 in Calm     87 % 0.00 in
01:02 49.1 °F 45.4 °F 30.30 in Calm     87 % 0.00 in
01:07 48.8 °F 45.4 °F 30.30 in Calm     88 % 0.00 in
01:13 48.6 °F 45.5 °F 30.30 in Calm     89 % 0.00 in
01:18 48.4 °F 45.3 °F 30.30 in Calm     89 % 0.00 in
01:23 48.5 °F 45.7 °F 30.30 in Calm     90 % 0.00 in
01:28 48.6 °F 46.1 °F 30.30 in Calm     91 % 0.00 in
01:33 48.6 °F 45.8 °F 30.30 in Calm     90 % 0.00 in
01:38 48.6 °F 46.1 °F 30.30 in Calm     91 % 0.00 in
01:43 48.7 °F 46.2 °F 30.30 in Calm     91 % 0.00 in
01:48 48.7 °F 46.2 °F 30.30 in Calm     91 % 0.00 in
01:53 48.6 °F 46.1 °F 30.30 in Calm     91 % 0.00 in
01:58 48.5 °F 46.0 °F 30.30 in Calm     91 % 0.00 in
02:00 48.4 °F 45.9 °F 30.30 in Calm     91 % 0.00 in
02:05 48.3 °F 45.8 °F 30.30 in Calm     91 % 0.00 in
02:10 48.3 °F 45.8 °F 30.30 in Calm     91 % 0.00 in
02:15 48.4 °F 45.9 °F 30.30 in Calm     91 % 0.00 in
02:20 48.5 °F 46.0 °F 30.30 in Calm     91 % 0.00 in
02:25 48.5 °F 45.7 °F 30.30 in Calm     90 % 0.00 in
02:30 48.3 °F 45.5 °F 30.30 in Calm     90 % 0.00 in
02:35 48.2 °F 45.4 °F 30.30 in Calm     90 % 0.00 in
02:40 48.1 °F 45.3 °F 30.31 in Calm     90 % 0.00 in
02:45 47.9 °F 45.1 °F 30.30 in Calm     90 % 0.00 in
02:50 48.3 °F 45.8 °F 30.31 in Calm     91 % 0.00 in
02:56 48.6 °F 45.8 °F 30.31 in Calm     90 % 0.00 in
03:01 48.8 °F 45.7 °F 30.31 in Calm     89 % 0.00 in
03:06 48.8 °F 45.4 °F 30.31 in Calm     88 % 0.00 in
03:11 48.9 °F 45.5 °F 30.31 in Calm     88 % 0.00 in
03:16 49.1 °F 45.4 °F 30.31 in SE 1.2 mph 1.2 mph 87 % 0.00 in
03:21 49.5 °F 45.2 °F 30.31 in SE 1.2 mph   85 % 0.00 in
03:26 49.9 °F 45.3 °F 30.30 in SE 1.2 mph   84 % 0.00 in
03:31 50.3 °F 45.3 °F 30.30 in Calm     83 % 0.00 in
03:36 50.5 °F 45.5 °F 30.31 in Calm     83 % 0.00 in
03:41 50.5 °F 45.5 °F 30.31 in Calm     83 % 0.00 in
03:46 50.5 °F 45.5 °F 30.31 in SE 1.2 mph 1.2 mph 83 % 0.00 in
03:51 50.5 °F 45.2 °F 30.31 in Calm     82 % 0.00 in
03:56 50.6 °F 45.3 °F 30.31 in SE 1.2 mph   82 % 0.00 in
04:01 50.5 °F 45.5 °F 30.31 in Calm     83 % 0.00 in
04:06 50.5 °F 45.2 °F 30.31 in Calm     82 % 0.00 in
04:11 50.4 °F 45.1 °F 30.31 in Calm     82 % 0.00 in
04:16 50.0 °F 45.0 °F 30.31 in Calm     83 % 0.00 in
04:21 49.2 °F 44.6 °F 30.31 in Calm     84 % 0.00 in
04:26 48.4 °F 43.8 °F 30.31 in Calm     84 % 0.00 in
04:31 47.7 °F 43.4 °F 30.31 in Calm     85 % 0.00 in
04:36 47.4 °F 43.4 °F 30.31 in Calm     86 % 0.00 in
04:41 47.1 °F 43.4 °F 30.31 in Calm     87 % 0.00 in
04:46 46.9 °F 43.5 °F 30.31 in Calm     88 % 0.00 in
04:51 46.7 °F 43.3 °F 30.31 in Calm     88 % 0.00 in
04:56 46.6 °F 43.5 °F 30.31 in Calm     89 % 0.00 in
05:01 46.6 °F 43.8 °F 30.31 in Calm     90 % 0.00 in
05:06 46.7 °F 43.9 °F 30.31 in Calm     90 % 0.00 in
05:11 46.6 °F 43.8 °F 30.31 in Calm     90 % 0.00 in
05:16 46.7 °F 44.2 °F 30.31 in Calm     91 % 0.00 in
05:21 46.7 °F 44.2 °F 30.31 in Calm     91 % 0.00 in
05:26 46.8 °F 44.3 °F 30.31 in Calm     91 % 0.00 in
05:31 47.0 °F 44.5 °F 30.31 in Calm     91 % 0.00 in
05:36 46.9 °F 44.4 °F 30.31 in Calm     91 % 0.00 in
05:41 46.7 °F 44.2 °F 30.31 in Calm     91 % 0.00 in
05:46 46.6 °F 44.1 °F 30.32 in Calm     91 % 0.00 in
05:51 46.4 °F 43.9 °F 30.32 in Calm     91 % 0.00 in
05:56 46.2 °F 43.7 °F 30.32 in Calm     91 % 0.00 in
06:01 45.8 °F 43.0 °F 30.32 in Calm     90 % 0.00 in
06:06 45.5 °F 43.0 °F 30.32 in Calm     91 % 0.00 in
06:11 45.6 °F 43.4 °F 30.32 in Calm     92 % 0.00 in
06:16 45.5 °F 43.3 °F 30.32 in Calm     92 % 0.00 in
06:21 45.3 °F 43.1 °F 30.32 in Calm     92 % 0.00 in
06:26 45.2 °F 43.0 °F 30.32 in Calm     92 % 0.00 in
06:31 45.3 °F 43.1 °F 30.32 in Calm     92 % 0.00 in
06:36 45.4 °F 43.2 °F 30.32 in Calm     92 % 0.00 in
06:41 45.5 °F 43.0 °F 30.33 in Calm     91 % 0.00 in
06:46 45.6 °F 43.4 °F 30.33 in Calm     92 % 0.00 in
06:51 45.7 °F 43.5 °F 30.33 in Calm     92 % 0.00 in
06:56 45.6 °F 43.1 °F 30.32 in Calm     91 % 0.00 in
07:02 45.3 °F 42.8 °F 30.33 in Calm     91 % 0.00 in
07:07 45.2 °F 42.7 °F 30.33 in Calm     91 % 0.00 in
07:12 45.0 °F 42.5 °F 30.33 in Calm     91 % 0.00 in
07:17 44.8 °F 42.3 °F 30.33 in Calm     91 % 0.00 in
07:22 44.6 °F 42.1 °F 30.33 in Calm     91 % 0.00 in
07:27 44.4 °F 41.9 °F 30.33 in Calm     91 % 0.00 in
07:32 44.4 °F 41.9 °F 30.33 in Calm     91 % 0.00 in
07:37 44.4 °F 42.2 °F 30.33 in Calm     92 % 0.00 in
07:42 44.4 °F 42.2 °F 30.33 in Calm     92 % 0.00 in
07:47 44.5 °F 42.3 °F 30.33 in Calm     92 % 0.00 in
07:52 44.7 °F 42.5 °F 30.33 in Calm     92 % 0.00 in
07:57 45.1 °F 42.9 °F 30.33 in SE 1.2 mph   92 % 0.00 in
08:02 45.4 °F 43.2 °F 30.34 in SE 1.2 mph 1.2 mph 92 % 0.00 in
08:07 46.0 °F 43.8 °F 30.34 in SE 1.2 mph   92 % 0.00 in
08:12 46.6 °F 44.4 °F 30.34 in Calm     92 % 0.00 in
08:17 48.1 °F 45.9 °F 30.34 in Calm     92 % 0.00 in
08:22 49.6 °F 46.5 °F 30.34 in Calm     89 % 0.00 in
08:27 50.9 °F 47.2 °F 30.34 in Calm     87 % 0.00 in
08:32 52.6 °F 47.9 °F 30.34 in Calm   0.1 mph 84 % 0.00 in
08:37 53.8 °F 48.4 °F 30.34 in Calm     82 % 0.00 in
08:42 55.1 °F 48.7 °F 30.35 in Calm     79 % 0.00 in
08:47 54.9 °F 47.8 °F 30.35 in North 1.2 mph 1.2 mph 77 % 0.00 in
08:52 54.7 °F 48.0 °F 30.35 in Calm     78 % 0.00 in
08:57 56.2 °F 49.1 °F 30.34 in Calm     77 % 0.00 in
09:02 56.5 °F 48.7 °F 30.34 in SE 1.2 mph   75 % 0.00 in
09:07 57.4 °F 49.2 °F 30.35 in Calm     74 % 0.00 in
09:12 58.3 °F 49.3 °F 30.35 in South 1.2 mph 1.2 mph 72 % 0.00 in
09:17 58.7 °F 48.9 °F 30.35 in South 1.2 mph 1.2 mph 70 % 0.00 in
09:22 59.0 °F 48.8 °F 30.35 in Calm     69 % 0.00 in
09:27 59.1 °F 48.9 °F 30.35 in Calm     69 % 0.00 in
09:32 59.7 °F 49.1 °F 30.35 in Calm     68 % 0.00 in
09:37 60.2 °F 48.8 °F 30.35 in ESE 1.2 mph 1.2 mph 66 % 0.00 in
09:42 60.5 °F 48.7 °F 30.35 in Calm     65 % 0.00 in
09:47 60.9 °F 48.2 °F 30.35 in Calm     63 % 0.00 in
09:52 61.2 °F 49.3 °F 30.35 in Calm     65 % 0.00 in
09:57 61.5 °F 49.6 °F 30.35 in Calm     65 % 0.00 in
10:02 61.8 °F 49.1 °F 30.35 in Calm     63 % 0.00 in
10:07 62.5 °F 48.9 °F 30.35 in North 1.0 mph 1.0 mph 61 % 0.00 in
10:12 62.6 °F 48.5 °F 30.35 in East 1.2 mph   60 % 0.00 in
10:17 63.1 °F 49.4 °F 30.35 in SE 1.2 mph   61 % 0.00 in
10:23 63.7 °F 49.5 °F 30.35 in SE 1.2 mph 1.2 mph 60 % 0.00 in
10:27 63.9 °F 49.3 °F 30.35 in Calm     59 % 0.00 in
10:32 63.8 °F 50.1 °F 30.35 in SSE 1.2 mph   61 % 0.00 in
10:37 63.7 °F 48.6 °F 30.35 in NNW 1.2 mph 1.2 mph 58 % 0.00 in
10:42 63.7 °F 48.2 °F 30.35 in WNW 1.2 mph 1.2 mph 57 % 0.00 in
10:47 63.4 °F 47.9 °F 30.35 in West 1.2 mph   57 % 0.00 in
10:52 63.6 °F 48.5 °F 30.35 in NNE 2.3 mph 2.3 mph 58 % 0.00 in
10:58 63.9 °F 48.4 °F 30.35 in Calm   0.1 mph 57 % 0.00 in
11:03 64.5 °F 48.4 °F 30.35 in NW 2.3 mph 2.3 mph 56 % 0.00 in
11:08 64.8 °F 48.2 °F 30.35 in Calm     55 % 0.00 in
11:13 65.3 °F 48.2 °F 30.35 in NW 2.3 mph 2.3 mph 54 % 0.00 in
11:18 65.6 °F 49.5 °F 30.35 in Calm     56 % 0.00 in
11:23 66.2 °F 49.1 °F 30.35 in Calm     54 % 0.00 in
11:28 66.1 °F 48.5 °F 30.35 in WNW 1.2 mph 1.2 mph 53 % 0.00 in
11:33 66.4 °F 49.7 °F 30.35 in WNW 2.3 mph 2.3 mph 55 % 0.00 in
11:37 66.5 °F 49.3 °F 30.34 in NW 2.3 mph 2.3 mph 54 % 0.00 in
11:42 66.7 °F 48.5 °F 30.34 in WSW 1.2 mph 1.2 mph 52 % 0.00 in
11:47 66.7 °F 49.0 °F 30.34 in Calm     53 % 0.00 in
11:52 67.1 °F 49.9 °F 30.34 in WNW 2.3 mph 2.3 mph 54 % 0.00 in
11:57 67.3 °F 49.1 °F 30.34 in NNW 2.3 mph 2.3 mph 52 % 0.00 in
12:02 67.6 °F 50.9 °F 30.33 in Calm     55 % 0.00 in
12:07 67.9 °F 49.1 °F 30.33 in West 1.2 mph 1.2 mph 51 % 0.00 in
12:12 68.2 °F 49.4 °F 30.33 in WNW 2.3 mph 2.3 mph 51 % 0.00 in
12:17 68.5 °F 51.2 °F 30.32 in Calm     54 % 0.00 in
12:22 69.6 °F 50.1 °F 30.32 in SW 1.2 mph 1.2 mph 50 % 0.00 in
12:27 69.9 °F 49.3 °F 30.32 in East 1.2 mph 1.2 mph 48 % 0.00 in
12:32 69.9 °F 48.7 °F 30.32 in NNW 1.2 mph 1.2 mph 47 % 0.00 in
12:37 69.7 °F 48.6 °F 30.32 in ENE 1.2 mph 1.2 mph 47 % 0.00 in
12:42 69.7 °F 48.6 °F 30.31 in NE 1.2 mph 1.2 mph 47 % 0.00 in
12:47 69.7 °F 48.6 °F 30.31 in NE 1.2 mph 1.2 mph 47 % 0.00 in
12:52 70.1 °F 48.9 °F 30.31 in WNW 2.3 mph 2.3 mph 47 % 0.00 in
12:57 70.3 °F 48.5 °F 30.31 in NNW 3.5 mph 3.5 mph 46 % 0.00 in
13:02 70.8 °F 50.7 °F 30.31 in Calm   0.1 mph 49 % 0.00 in
13:07 71.3 °F 49.4 °F 30.30 in SE 1.2 mph 1.2 mph 46 % 0.00 in
13:12 71.6 °F 49.7 °F 30.30 in NW 2.3 mph 2.3 mph 46 % 0.00 in
13:13 71.6 °F 49.7 °F 30.30 in NW 3.5 mph 3.5 mph 46 % 0.00 in
13:18 71.2 °F 48.8 °F 30.29 in WNW 1.2 mph 1.2 mph 45 % 0.00 in
13:23 71.1 °F 48.7 °F 30.29 in WNW 3.5 mph 3.5 mph 45 % 0.00 in
13:28 71.1 °F 48.1 °F 30.29 in WSW 2.3 mph 2.3 mph 44 % 0.00 in
13:33 71.1 °F 49.3 °F 30.28 in WNW 2.3 mph 2.3 mph 46 % 0.00 in
13:38 71.4 °F 49.5 °F 30.28 in Calm     46 % 0.00 in
13:43 71.8 °F 50.5 °F 30.28 in Calm     47 % 0.00 in
13:48 71.8 °F 48.7 °F 30.27 in ENE 4.6 mph 4.6 mph 44 % 0.00 in
13:53 71.6 °F 47.9 °F 30.27 in Calm     43 % 0.00 in
13:58 72.1 °F 49.0 °F 30.27 in Calm     44 % 0.00 in
14:03 72.5 °F 51.1 °F 30.27 in Calm     47 % 0.00 in
14:08 73.3 °F 50.7 °F 30.27 in ESE 2.3 mph 2.3 mph 45 % 0.00 in
14:13 73.3 °F 49.4 °F 30.26 in Calm     43 % 0.00 in
14:18 73.2 °F 48.7 °F 30.26 in NW 1.2 mph   42 % 0.00 in
14:23 73.7 °F 49.2 °F 30.26 in NNW 1.2 mph   42 % 0.00 in
14:28 73.9 °F 49.4 °F 30.26 in SE 1.2 mph 1.2 mph 42 % 0.00 in
14:33 73.8 °F 49.9 °F 30.26 in NNW 1.2 mph 1.2 mph 43 % 0.00 in
14:43 73.7 °F 49.8 °F 30.25 in NNW 1.2 mph 1.2 mph 43 % 0.00 in
14:48 73.7 °F 49.2 °F 30.26 in NW 1.2 mph 1.2 mph 42 % 0.00 in
14:53 73.5 °F 49.0 °F 30.26 in SE 1.2 mph 1.2 mph 42 % 0.00 in
14:58 73.7 °F 49.8 °F 30.26 in WNW 1.2 mph 1.2 mph 43 % 0.00 in
15:03 74.1 °F 49.5 °F 30.25 in Calm     42 % 0.00 in
15:04 74.2 °F 49.6 °F 30.26 in Calm     42 % 0.00 in
15:09 74.6 °F 50.0 °F 30.26 in Calm     42 % 0.00 in
15:15 74.7 °F 49.4 °F 30.25 in NW 1.2 mph 1.2 mph 41 % 0.00 in
15:20 74.5 °F 49.9 °F 30.25 in WNW 2.3 mph 2.3 mph 42 % 0.00 in
15:25 74.2 °F 49.6 °F 30.25 in Calm     42 % 0.00 in
15:30 74.6 °F 50.6 °F 30.25 in NNW 1.2 mph 1.2 mph 43 % 0.00 in
15:35 74.9 °F 50.3 °F 30.25 in WSW 1.2 mph 1.2 mph 42 % 0.00 in
15:40 74.5 °F 49.2 °F 30.25 in WSW 3.5 mph 3.5 mph 41 % 0.00 in
15:45 74.2 °F 50.3 °F 30.25 in WNW 1.2 mph 1.2 mph 43 % 0.00 in
15:50 73.9 °F 49.4 °F 30.25 in WNW 2.3 mph 2.3 mph 42 % 0.00 in
15:55 73.7 °F 49.8 °F 30.25 in South 1.2 mph   43 % 0.00 in
15:56 73.7 °F 49.2 °F 30.25 in Calm     42 % 0.00 in
16:01 73.6 °F 49.7 °F 30.25 in SW 1.2 mph   43 % 0.00 in
16:06 73.6 °F 49.7 °F 30.25 in West 1.2 mph 1.2 mph 43 % 0.00 in
16:11 73.4 °F 48.9 °F 30.25 in SW 2.3 mph 2.3 mph 42 % 0.00 in
16:16 73.3 °F 48.8 °F 30.25 in Calm     42 % 0.00 in
16:17 73.3 °F 48.8 °F 30.25 in NNW 1.0 mph 1.0 mph 42 % 0.00 in
16:22 73.3 °F 48.8 °F 30.25 in Calm     42 % 0.00 in
16:27 73.1 °F 49.3 °F 30.25 in WNW 1.2 mph   43 % 0.00 in
16:37 72.8 °F 48.4 °F 30.25 in Calm     42 % 0.00 in
16:42 72.7 °F 48.3 °F 30.24 in Calm     42 % 0.00 in
16:47 72.6 °F 48.2 °F 30.24 in NNW 1.2 mph 1.2 mph 42 % 0.00 in
16:52 72.5 °F 48.7 °F 30.24 in NW 1.2 mph 1.2 mph 43 % 0.00 in
16:57 72.3 °F 49.2 °F 30.24 in NNW 1.2 mph 1.2 mph 44 % 0.00 in
17:02 72.2 °F 49.1 °F 30.24 in Calm     44 % 0.00 in
17:07 72.0 °F 48.3 °F 30.24 in North 1.2 mph 1.2 mph 43 % 0.00 in
17:12 71.8 °F 48.7 °F 30.24 in NW 1.2 mph 1.2 mph 44 % 0.00 in
17:17 71.7 °F 49.2 °F 30.24 in Calm     45 % 0.00 in
17:22 71.5 °F 49.0 °F 30.24 in Calm     45 % 0.00 in
17:27 71.2 °F 49.4 °F 30.24 in Calm     46 % 0.00 in
17:32 70.9 °F 49.7 °F 30.24 in Calm     47 % 0.00 in
17:37 70.6 °F 50.0 °F 30.24 in Calm     48 % 0.00 in
17:42 70.3 °F 50.2 °F 30.24 in Calm     49 % 0.00 in
17:47 69.9 °F 50.4 °F 30.24 in Calm     50 % 0.00 in
17:52 69.5 °F 50.0 °F 30.24 in Calm     50 % 0.00 in
17:57 69.1 °F 50.2 °F 30.24 in Calm     51 % 0.00 in
18:02 68.7 °F 50.4 °F 30.24 in Calm     52 % 0.00 in
18:07 68.3 °F 50.5 °F 30.24 in Calm     53 % 0.00 in
18:12 68.0 °F 50.2 °F 30.24 in Calm     53 % 0.00 in
18:17 67.5 °F 50.8 °F 30.24 in Calm     55 % 0.00 in
18:22 66.8 °F 51.1 °F 30.24 in Calm     57 % 0.00 in
18:27 66.2 °F 50.5 °F 30.24 in Calm     57 % 0.00 in
18:32 65.8 °F 51.1 °F 30.24 in Calm     59 % 0.00 in
18:37 65.2 °F 51.4 °F 30.24 in Calm     61 % 0.00 in
18:42 64.5 °F 51.2 °F 30.24 in Calm     62 % 0.00 in
18:47 64.0 °F 50.7 °F 30.24 in Calm     62 % 0.00 in
18:52 63.7 °F 50.9 °F 30.24 in Calm     63 % 0.00 in
18:57 63.2 °F 51.2 °F 30.24 in Calm     65 % 0.00 in
19:02 62.8 °F 51.3 °F 30.24 in Calm     66 % 0.00 in
19:07 62.4 °F 51.3 °F 30.25 in Calm     67 % 0.00 in
19:12 61.9 °F 51.2 °F 30.25 in Calm     68 % 0.00 in
19:17 61.6 °F 51.3 °F 30.25 in Calm     69 % 0.00 in
19:22 61.2 °F 51.3 °F 30.25 in Calm     70 % 0.00 in
19:27 60.9 °F 51.8 °F 30.25 in Calm     72 % 0.00 in
19:37 60.2 °F 51.1 °F 30.25 in Calm     72 % 0.00 in
19:42 59.9 °F 51.2 °F 30.25 in Calm     73 % 0.00 in
19:47 59.5 °F 51.6 °F 30.25 in Calm     75 % 0.00 in
19:52 59.2 °F 51.6 °F 30.25 in Calm     76 % 0.00 in
19:57 58.8 °F 51.2 °F 30.25 in Calm     76 % 0.00 in
20:02 58.5 °F 51.3 °F 30.25 in Calm     77 % 0.00 in
20:07 58.3 °F 52.5 °F 30.25 in Calm     81 % 0.00 in
20:13 58.2 °F 52.7 °F 30.25 in Calm     82 % 0.00 in
20:18 58.2 °F 51.7 °F 30.25 in Calm     79 % 0.00 in
20:21 58.2 °F 51.0 °F 30.25 in Calm     77 % 0.00 in
20:26 58.2 °F 51.4 °F 30.25 in Calm     78 % 0.00 in
20:31 58.0 °F 51.2 °F 30.25 in Calm     78 % 0.00 in
20:36 57.8 °F 51.0 °F 30.26 in Calm     78 % 0.00 in
20:41 57.6 °F 50.8 °F 30.26 in Calm     78 % 0.00 in
20:46 57.5 °F 51.0 °F 30.26 in Calm     79 % 0.00 in
20:51 57.5 °F 51.0 °F 30.26 in Calm     79 % 0.00 in
20:56 57.5 °F 51.0 °F 30.26 in Calm     79 % 0.00 in
21:01 57.3 °F 51.2 °F 30.26 in Calm     80 % 0.00 in
21:06 57.1 °F 51.0 °F 30.26 in Calm     80 % 0.00 in
21:11 57.0 °F 51.2 °F 30.26 in Calm     81 % 0.00 in
21:16 56.8 °F 51.0 °F 30.26 in Calm     81 % 0.00 in
21:21 56.6 °F 51.2 °F 30.26 in Calm     82 % 0.00 in
21:26 56.5 °F 51.4 °F 30.27 in Calm     83 % 0.00 in
21:31 56.5 °F 51.1 °F 30.27 in Calm     82 % 0.00 in
21:36 56.4 °F 51.0 °F 30.27 in Calm     82 % 0.00 in
21:41 56.1 °F 50.7 °F 30.27 in Calm     82 % 0.00 in
21:46 55.9 °F 50.8 °F 30.27 in Calm     83 % 0.00 in
21:51 55.7 °F 50.9 °F 30.27 in Calm     84 % 0.00 in
21:56 55.4 °F 50.6 °F 30.27 in Calm     84 % 0.00 in
22:01 55.1 °F 50.4 °F 30.27 in Calm     84 % 0.00 in
22:06 54.8 °F 50.1 °F 30.27 in Calm     84 % 0.00 in
22:11 54.5 °F 49.8 °F 30.27 in Calm     84 % 0.00 in
22:17 54.3 °F 50.2 °F 30.27 in Calm     86 % 0.00 in
22:22 54.2 °F 50.1 °F 30.27 in Calm     86 % 0.00 in
22:27 54.2 °F 50.1 °F 30.27 in Calm     86 % 0.00 in
22:32 54.1 °F 50.0 °F 30.27 in Calm     86 % 0.00 in
22:37 53.9 °F 49.8 °F 30.27 in Calm     86 % 0.00 in
22:42 53.6 °F 49.5 °F 30.27 in Calm     86 % 0.00 in
22:47 53.4 °F 49.6 °F 30.27 in Calm     87 % 0.00 in
22:52 53.1 °F 49.3 °F 30.27 in Calm     87 % 0.00 in
22:57 52.9 °F 49.1 °F 30.27 in Calm     87 % 0.00 in
23:02 52.7 °F 48.9 °F 30.27 in Calm     87 % 0.00 in
23:07 52.7 °F 49.5 °F 30.27 in Calm     89 % 0.00 in
23:12 52.8 °F 49.6 °F 30.27 in Calm     89 % 0.00 in
23:17 52.6 °F 49.1 °F 30.27 in Calm     88 % 0.00 in
23:22 52.4 °F 48.9 °F 30.27 in Calm     88 % 0.00 in
23:27 52.5 °F 49.0 °F 30.27 in Calm     88 % 0.00 in
23:32 52.4 °F 48.6 °F 30.27 in Calm     87 % 0.00 in
23:37 52.3 °F 48.9 °F 30.27 in Calm     88 % 0.00 in
23:42 52.2 °F 48.8 °F 30.27 in Calm     88 % 0.00 in
23:47 52.2 °F 49.1 °F 30.27 in Calm     89 % 0.00 in
23:52 52.2 °F 49.1 °F 30.27 in Calm     89 % 0.00 in
23:57 52.0 °F 48.9 °F 30.27 in Calm     89 % 0.00 in
Park Place, Exeter, Tulare County, California, USA
Compliments of Weather Underground - 2.75 mb